Regional Weather Roundup
Issued by NWS

Home | Current Version | Previous Version | Text Only | Print | Product List | Glossary Off
Versions: 1 2 3 4 5 6 7 8 9 10 11 12 13 14 15 16 17 18 19 20 21 22 23 24 25 26 27 28 29 30 31 32 33 34 35 36 37 38 39 40 41 42 43 44 45 46 47 48 49 50

000
ASUS43 KBIS 171802
RWRND

NORTH DAKOTA REGIONAL WEATHER ROUNDUP
NATIONAL WEATHER SERVICE BISMARCK ND
1200 PM CST SUN DEC 17 2017

NOTE: "FAIR" INDICATES FEW OR NO CLOUDS BELOW 12,000 FEET WITH NO
SIGNIFICANT WEATHER AND/OR OBSTRUCTIONS TO VISIBILITY.


NDZ001>003-009>011-017-171900-
NORTHWEST NORTH DAKOTA

CITY           SKY/WX    TMP DP  RH WIND       PRES   REMARKS
WILLISTON      SUNNY     31  24  75 S7        29.84F
6HR MIN TEMP:  14; 6HR MAX TEMP:  31;

MINOT          SUNNY     36  21  54 S13G18    29.87F
MINOT AFB      SUNNY     36  21  54 SW12      29.86F
$$

NDZ018>021-031>035-040>046-171900-
SOUTHWEST NORTH DAKOTA

CITY           SKY/WX    TMP DP  RH WIND       PRES   REMARKS
BISMARCK       SUNNY     31  26  82 CALM      29.97F
6HR MIN TEMP:  14; 6HR MAX TEMP:  31;

DICKINSON      MOSUNNY   36  23  59 SW16      29.87F
GARRISON         N/A     33  24  69 S12       29.91F
6HR MIN TEMP:  16; 6HR MAX TEMP:  33;

HETTINGER ARPT CLOUDY    33  24  69 S10       29.93F
$$

NDZ004>008-012>016-024-026-027-054-171900-
NORTHEAST NORTH DAKOTA

CITY           SKY/WX    TMP DP  RH WIND       PRES   REMARKS
GRAND FORKS    PTSUNNY   23  21  92 SW7       29.97F WCI  15
GRND FRKS AFB  MOSUNNY   30  19  63 W13       29.96F WCI  20
DEVILS LAKE    SUNNY     28  22  78 SW8       29.93F WCI  20
$$

NDZ022-023-025-028>030-036>039-047>053-171900-
SOUTHEAST NORTH DAKOTA

CITY           SKY/WX    TMP DP  RH WIND       PRES   REMARKS
FARGO          CLOUDY    28  26  92 S8        30.01F WCI  20
6HR MIN TEMP:  21; 6HR MAX TEMP:  28;

JAMESTOWN      SUNNY     33  27  78 SW3       29.96F
$$




USA.gov is the U.S. government's official web portal to all federal, state and local government web resources and services.